Wind_Speed
10 10 9 9 8 7 8 7 6 6 7 8 9 9 9 9 9 9 10 9 10 10 11 11 11 10 10 10 10 10 10 10 10 10 9 9 8 8 8 8 7 7 6 6
11 10 10 10 9 7 7 6 5 5 5 6 7 7 7 7 8 8 8 8 9 9 9 10 10 10 10 10 10 10 10 10 10 9 9 8 9 9 9 8 7 7 6 6
13 12 11 11 9 7 6 6 5 3 4 4 5 6 6 5 6 7 7 7 7 8 8 9 9 9 9 8 9 9 9 9 9 9 8 8 8 9 8 8 7 6 6 5
15 14 13 11 10 8 7 6 4 2 2 2 3 3 4 4 4 5 6 6 6 6 7 7 7 7 7 7 7 8 8 8 8 8 7 7 7 7 7 7 6 5 5 5
16 16 14 13 11 10 9 6 4 3 1 1 1 2 2 2 2 3 4 5 5 5 6 6 6 6 6 6 6 7 7 7 7 7 6 6 6 6 6 6 6 5 5 5
19 18 16 14 13 12 9 7 5 3 3 3 2 0 1 1 1 1 2 3 3 4 4 5 5 5 6 6 6 6 6 6 6 6 5 5 5 4 5 5 5 5 6 6
20 19 17 15 14 13 11 8 5 5 5 5 4 3 3 2 1 1 2 2 2 2 3 4 4 4 5 5 5 6 6 6 5 4 5 5 5 5 4 5 5 5 5 6
20 19 19 17 16 14 12 10 8 7 6 6 6 5 4 4 3 2 2 3 2 2 2 2 4 4 5 5 5 5 5 5 5 5 5 5 6 6 6 6 6 6 6 7
21 21 20 19 18 17 15 13 11 9 8 6 7 6 5 5 4 4 4 3 3 3 3 3 3 4 4 5 5 5 5 5 5 6 5 6 6 7 7 7 8 8 8 9
23 22 21 21 19 19 17 15 13 11 10 8 8 7 6 6 6 6 6 6 5 5 5 5 5 5 5 6 6 6 6 6 6 7 7 7 8 8 8 9 9 10 10 10
25 24 23 22 21 20 19 18 15 14 12 10 10 10 9 8 8 8 8 8 7 7 7 7 7 7 7 7 7 8 8 8 8 8 9 9 10 10 11 11 11 11 11 12
26 25 24 24 23 22 21 19 18 16 16 14 12 12 11 10 9 9 9 9 9 9 9 9 9 8 9 9 9 9 9 9 10 11 11 11 11 12 12 12 12 13 13 14
28 28 26 25 25 25 24 22 21 19 19 17 14 14 14 13 12 11 11 12 12 11 11 11 11 11 11 12 12 12 12 12 12 13 13 13 13 14 14 14 13 13 15 16
30 30 28 26 25 25 25 24 23 22 20 19 18 17 16 15 14 14 14 14 14 14 13 13 13 13 13 14 15 15 16 16 15 15 15 15 15 15 15 15 15 15 16 17
32 32 31 29 28 27 26 26 25 24 23 21 20 19 18 18 17 16 16 16 16 16 16 16 16 16 16 17 17 18 18 18 18 18 18 18 17 17 16 16 16 17 18 18
34 33 32 31 30 29 28 27 26 26 25 24 23 23 22 20 19 18 18 18 19 18 19 19 19 19 19 19 20 20 21 21 21 21 21 20 20 19 18 18 19 19 19 20
35 34 33 32 31 31 31 30 28 28 27 26 25 25 25 23 22 20 20 20 21 21 21 21 21 21 21 21 22 22 23 24 23 23 23 23 23 22 21 21 21 21 21 21
36 35 34 33 33 33 31 30 30 29 29 28 28 27 26 26 24 23 22 22 23 23 23 23 23 24 24 24 24 25 25 25 24 25 25 25 24 24 23 23 23 22 22 22
37 37 36 34 34 33 33 31 30 30 31 30 29 28 28 28 27 26 25 25 25 25 25 25 25 26 26 26 26 27 27 27 26 26 25 25 24 25 25 24 24 25 25 24
38 38 37 36 34 33 33 32 31 30 31 31 30 30 30 29 29 28 27 27 27 27 27 27 27 27 27 27 28 28 28 28 27 27 27 26 26 26 27 26 26 27 27 27
38 38 38 37 35 34 34 33 31 32 32 31 30 30 30 31 31 30 29 29 29 29 29 29 29 29 29 29 29 30 29 29 29 29 29 29 29 29 28 28 28 28 28 28
37 38 38 37 36 35 35 34 34 33 33 32 31 30 30 30 31 31 31 31 31 31 31 31 31 31 31 31 31 31 31 31 31 31 30 30 31 31 29 29 29 30 30 30
37 38 38 38 38 37 35 34 34 34 33 32 32 31 31 31 31 32 32 32 33 33 33 32 32 33 33 33 32 32 33 33 33 32 32 31 32 31 31 31 31 31 31 31
37 39 38 37 37 37 36 35 35 34 33 32 32 32 32 32 32 33 33 33 33 33 33 34 34 34 34 34 34 33 34 34 34 34 34 33 33 33 33 33 33 32 32 32
36 37 37 37 36 35 35 34 34 34 34 34 34 33 33 33 34 34 34 34 34 34 34 34 34 34 34 35 35 36 36 36 35 35 35 34 34 34 34 34 33 34 34 33
33 35 35 36 35 34 34 35 35 35 35 34 35 35 35 35 35 35 35 35 35 36 36 35 35 36 36 37 37 36 36 36 36 36 35 36 36 35 35 35 35 35 35 35
Wind_Direction
171 165 168 170 164 152 137 127 117 101 84 73 69 64 60 59 59 59 60 63 65 66 67 67 68 70 70 70 67 67 71 75 75 77 82 83 84 82 81 76 79 83 81 78
184 184 181 181 181 170 154 138 132 119 95 77 71 62 54 52 51 53 56 61 63 62 62 63 64 66 70 70 67 65 67 71 71 73 78 83 81 75 72 73 74 76 72 66
193 196 191 188 187 181 171 160 154 142 108 81 70 49 41 44 43 46 49 54 58 58 59 61 63 64 65 65 64 63 66 66 66 66 69 75 75 71 68 67 64 64 59 54
200 199 193 193 196 192 195 188 174 161 104 54 78 47 23 38 46 47 47 47 51 51 51 53 53 57 59 58 58 60 63 63 63 64 66 67 68 64 60 57 52 48 42 36
208 202 197 199 203 202 201 200 206 213 204 4 17 55 356 7 34 42 41 41 43 42 40 39 43 48 49 47 47 52 56 61 62 61 58 57 56 55 49 43 37 29 21 16
212 207 205 206 208 209 208 214 225 249 260 275 272 234 307 305 339 7 15 23 31 37 35 36 39 40 39 38 38 39 44 50 53 50 46 40 37 37 33 24 17 13 7 4
215 213 211 211 213 215 214 218 242 268 266 266 270 261 253 255 251 295 333 346 4 16 26 30 29 29 28 25 24 25 27 28 32 29 24 19 16 7 358 359 358 353 350 350
218 218 216 215 217 220 219 220 223 232 245 265 278 272 266 252 250 269 301 319 333 335 341 5 12 11 12 9 6 8 12 13 9 1 360 355 353 352 347 336 333 330 327 327
219 223 222 221 219 221 223 223 227 234 240 249 264 275 273 255 258 270 285 298 300 299 303 318 337 347 354 353 351 350 352 353 351 349 345 339 335 334 332 329 321 317 316 317
220 221 224 223 225 225 225 230 229 230 235 247 264 271 272 270 269 274 280 287 291 284 287 290 301 315 324 332 335 330 327 325 332 333 328 324 323 319 319 318 314 313 313 312
220 223 226 227 227 230 229 229 230 233 234 240 257 263 266 272 271 269 270 277 285 287 286 286 287 296 303 311 318 319 319 321 319 317 317 315 315 316 315 313 310 308 307 306
221 224 229 230 230 230 232 233 235 238 243 242 248 261 263 266 270 270 270 272 275 282 282 280 281 285 290 298 306 312 313 311 313 311 309 308 311 312 312 310 305 301 301 303
223 225 229 232 234 233 234 235 237 240 245 249 250 260 260 261 267 267 267 268 270 273 276 276 276 279 284 288 293 300 306 306 306 306 308 310 311 310 310 308 303 300 298 300
225 228 228 231 236 238 237 237 240 242 244 250 251 255 260 261 263 264 264 265 268 268 270 271 273 277 281 285 287 291 297 298 300 302 306 308 306 305 305 305 301 299 297 297
227 230 231 231 233 237 241 242 242 242 243 247 252 255 260 261 260 259 259 262 265 265 266 267 270 275 278 282 284 287 291 293 296 298 300 305 304 301 301 300 297 297 296 295
228 232 235 236 236 238 240 241 242 243 245 247 251 255 258 260 258 258 260 262 264 265 266 267 270 274 277 279 281 284 287 291 294 296 298 299 303 303 301 298 296 295 294 293
230 232 234 237 239 240 240 240 243 245 246 248 250 254 256 259 259 261 262 262 264 264 265 268 271 275 276 278 280 283 285 288 291 293 295 295 298 299 300 299 297 295 293 291
232 232 234 236 239 241 242 242 243 245 247 249 251 253 256 257 257 259 261 261 262 264 267 269 270 274 278 279 281 284 285 286 288 290 292 293 293 294 296 297 296 294 293 290
232 233 234 236 240 243 243 244 244 246 248 250 253 254 255 257 256 257 259 259 261 263 266 270 272 273 276 278 280 282 284 285 286 288 289 290 291 292 292 293 294 292 291 291
232 233 234 236 239 243 246 246 246 248 250 250 252 253 255 256 257 258 258 260 261 263 265 268 271 274 276 278 279 281 282 284 284 285 286 287 288 290 290 290 291 292 291 291
233 234 235 236 239 242 246 247 247 248 250 251 252 253 255 257 257 259 259 260 262 264 266 267 269 272 274 276 278 281 281 282 283 283 284 285 285 287 287 289 290 291 291 292
234 235 236 236 239 242 245 247 248 251 251 252 252 253 255 257 257 258 259 260 262 263 265 267 268 270 273 275 277 278 278 280 281 282 281 283 284 285 286 288 289 290 291 291
235 235 236 237 239 243 246 248 250 251 253 253 253 254 255 257 258 259 259 261 262 264 265 266 268 270 272 273 275 276 277 279 281 281 281 282 282 284 286 287 288 290 291 290
236 236 237 239 241 243 246 248 250 251 252 253 254 255 257 258 259 261 260 260 262 263 264 265 267 268 269 270 271 274 276 278 280 281 281 282 283 284 284 285 287 288 289 289
237 236 237 239 242 244 246 247 249 251 252 253 255 256 257 259 261 262 260 259 260 262 263 265 266 267 267 269 271 273 274 277 278 280 281 281 283 284 284 285 285 286 287 288
239 238 238 240 242 245 248 250 248 250 252 254 255 256 258 260 260 261 262 261 260 261 262 263 264 265 266 267 269 271 274 276 277 279 280 282 283 283 283 283 284 284 285 286
Height
5917 5920 5922 5923 5924 5925 5926 5927 5927 5926 5925 5924 5924 5923 5923 5921 5920 5919 5918 5917 5916 5914 5913 5911 5910 5909 5908 5907 5906 5904 5903 5902 5901 5900 5899 5899 5899 5898 5898 5897 5896 5896 5896 5895
5918 5920 5921 5922 5923 5924 5925 5927 5927 5927 5926 5926 5925 5925 5924 5923 5922 5921 5920 5919 5917 5916 5915 5914 5912 5911 5910 5909 5908 5907 5905 5904 5903 5902 5902 5901 5901 5900 5899 5899 5898 5898 5897 5897
5917 5920 5920 5921 5923 5924 5925 5927 5928 5927 5927 5927 5927 5927 5926 5925 5924 5923 5922 5921 5919 5918 5917 5916 5915 5913 5912 5911 5910 5909 5907 5906 5905 5904 5903 5903 5903 5902 5901 5901 5900 5900 5899 5898
5915 5917 5918 5920 5922 5923 5925 5926 5927 5927 5927 5928 5928 5930 5927 5925 5925 5924 5923 5922 5921 5920 5919 5918 5916 5915 5914 5912 5911 5910 5909 5908 5907 5906 5905 5905 5904 5903 5903 5902 5901 5901 5900 5899
5913 5915 5917 5919 5921 5922 5924 5925 5926 5926 5927 5928 5928 5929 5929 5926 5925 5925 5924 5923 5922 5921 5920 5919 5918 5916 5915 5914 5912 5911 5910 5910 5909 5908 5907 5906 5905 5905 5904 5903 5902 5901 5900 5899
5911 5913 5915 5917 5919 5921 5922 5924 5925 5926 5927 5929 5928 5929 5929 5927 5926 5925 5924 5923 5922 5922 5921 5920 5919 5917 5916 5915 5914 5912 5912 5911 5910 5909 5908 5907 5906 5905 5904 5903 5902 5901 5900 5899
5908 5910 5912 5915 5917 5919 5921 5924 5926 5927 5928 5928 5927 5927 5928 5926 5925 5925 5924 5923 5923 5922 5921 5920 5920 5918 5917 5916 5914 5913 5912 5911 5910 5909 5908 5908 5907 5905 5904 5903 5902 5901 5899 5898
5906 5909 5910 5913 5915 5917 5919 5922 5925 5927 5928 5928 5926 5926 5927 5925 5924 5924 5923 5923 5922 5922 5921 5920 5920 5919 5918 5916 5915 5914 5913 5912 5911 5909 5908 5907 5906 5905 5904 5902 5901 5900 5898 5897
5903 5906 5908 5909 5912 5914 5916 5918 5921 5923 5924 5925 5925 5924 5924 5923 5923 5923 5923 5922 5922 5921 5921 5920 5919 5918 5918 5916 5915 5914 5913 5912 5910 5909 5908 5907 5905 5904 5903 5901 5900 5898 5897 5895
5899 5902 5904 5906 5908 5911 5913 5915 5918 5920 5921 5923 5924 5923 5923 5922 5921 5921 5921 5921 5921 5921 5920 5920 5919 5918 5917 5916 5915 5913 5912 5911 5910 5908 5907 5906 5904 5903 5901 5900 5898 5896 5895 5893
5894 5898 5900 5902 5904 5907 5910 5912 5914 5916 5917 5920 5922 5924 5921 5920 5920 5919 5919 5919 5919 5919 5918 5918 5917 5917 5916 5915 5914 5912 5911 5910 5909 5907 5906 5904 5903 5901 5900 5898 5896 5894 5893 5891
5889 5893 5896 5898 5900 5902 5905 5907 5910 5913 5913 5915 5918 5921 5917 5917 5917 5917 5917 5917 5917 5917 5916 5916 5915 5915 5914 5913 5912 5911 5910 5908 5907 5905 5904 5902 5900 5899 5897 5895 5893 5892 5890 5888
5883 5887 5890 5893 5896 5898 5900 5902 5905 5908 5909 5911 5914 5917 5913 5913 5914 5914 5914 5914 5914 5914 5914 5913 5913 5912 5911 5911 5910 5909 5908 5906 5905 5903 5901 5899 5898 5896 5894 5892 5890 5889 5887 5885
5878 5881 5885 5890 5892 5893 5894 5897 5899 5902 5904 5906 5908 5910 5910 5909 5910 5910 5911 5911 5911 5911 5910 5910 5910 5909 5909 5908 5907 5906 5905 5903 5902 5900 5899 5897 5895 5893 5891 5889 5887 5885 5883 5881
5871 5874 5877 5881 5884 5887 5889 5891 5894 5896 5899 5901 5903 5904 5905 5905 5905 5906 5906 5907 5907 5907 5906 5906 5906 5906 5905 5905 5904 5902 5901 5900 5898 5897 5895 5893 5891 5889 5887 5885 5883 5881 5879 5877
5863 5867 5871 5874 5877 5880 5882 5885 5887 5890 5892 5894 5896 5898 5899 5899 5900 5900 5901 5902 5902 5902 5902 5902 5902 5901 5901 5900 5899 5898 5897 5895 5894 5892 5890 5889 5887 5885 5883 5881 5879 5877 5875 5873
5856 5860 5864 5867 5870 5872 5875 5878 5881 5883 5885 5888 5890 5892 5892 5893 5894 5895 5896 5896 5897 5897 5897 5897 5897 5896 5896 5895 5894 5893 5892 5890 5888 5887 5885 5883 5882 5880 5878 5876 5874 5872 5869 5867
5848 5852 5856 5860 5862 5864 5870 5871 5874 5876 5878 5880 5882 5884 5885 5886 5887 5888 5890 5890 5891 5891 5891 5891 5891 5890 5890 5889 5888 5887 5885 5884 5882 5881 5879 5877 5876 5874 5872 5870 5868 5866 5864 5862
5840 5844 5848 5851 5854 5857 5861 5863 5866 5868 5870 5872 5874 5876 5877 5879 5880 5881 5882 5883 5884 5884 5884 5884 5884 5884 5883 5883 5882 5880 5879 5877 5876 5874 5873 5871 5869 5867 5865 5863 5861 5859 5857 5855
5831 5835 5839 5842 5846 5849 5853 5855 5858 5861 5862 5864 5866 5868 5869 5871 5873 5873 5875 5875 5876 5877 5877 5877 5877 5877 5876 5875 5875 5873 5872 5871 5869 5867 5866 5864 5863 5861 5859 5857 5855 5852 5850 5848
5822 5825 5829 5833 5837 5841 5843 5846 5850 5853 5854 5856 5858 5859 5861 5862 5864 5865 5866 5867 5868 5868 5869 5869 5869 5869 5868 5868 5867 5866 5864 5863 5862 5860 5858 5857 5855 5853 5852 5849 5847 5845 5843 5841
5813 5817 5820 5824 5829 5834 5834 5837 5841 5843 5845 5847 5849 5851 5852 5853 5855 5856 5857 5858 5859 5860 5860 5860 5860 5860 5860 5859 5859 5858 5856 5855 5853 5852 5850 5849 5847 5845 5843 5841 5839 5837 5835 5833
5804 5808 5812 5816 5821 5823 5825 5828 5831 5834 5836 5838 5840 5842 5843 5844 5846 5847 5848 5849 5850 5851 5851 5851 5851 5851 5851 5850 5850 5849 5848 5846 5844 5843 5841 5840 5838 5836 5835 5833 5831 5828 5826 5824
5794 5799 5803 5807 5810 5814 5817 5819 5821 5824 5826 5828 5831 5833 5834 5835 5836 5838 5838 5839 5840 5841 5842 5842 5842 5842 5842 5841 5840 5840 5839 5837 5836 5834 5832 5830 5829 5828 5826 5824 5822 5819 5817 5815
5786 5789 5793 5797 5801 5804 5807 5810 5812 5815 5817 5819 5821 5823 5824 5825 5826 5828 5828 5829 5830 5831 5831 5832 5832 5832 5832 5831 5831 5830 5829 5828 5826 5825 5823 5821 5820 5818 5816 5814 5812 5811 5809 5806
5777 5781 5785 5788 5792 5795 5798 5801 5803 5805 5807 5809 5811 5813 5814 5815 5816 5817 5818 5819 5819 5820 5820 5821 5821 5821 5821 5821 5820 5819 5818 5817 5816 5815 5813 5811 5809 5807 5806 5804 5803 5801 5799 5797